Location: Newark
(52.3500°N, 175.9667°E)
Time: 21:42:22
(UTC+00:00)

N. Korean satellite - Pass Details

Date: 06 March 2021
Orbit: 452 x 499 km, 97.2° (Epoch: 15 April)

Event Time Altitude Azimuth Distance (km) Brightness Sun altitude
Rises 18:09:29 0° 10° (N) 2,531 10.3 -7.0°
Reaches altitude 10° 18:11:33 10° 7° (N) 1,656 9.4 -6.6°
Maximum altitude 18:15:03 61° 287° (WNW) 554 6.6 -6.1°
Drops below altitude 10° 18:18:36 10° 207° (SSW) 1,668 9.0 -5.6°
Sets 18:20:41 0° 204° (SSW) 2,552 10.0 -5.3°
